Simultaneous Nadir Overpasses (SNOs) Predictions

Prediction of SNOs between GOES-16 and TERRA Satellite Orbit:

Table of predicted SNOs for the next 14.0 days since TLE Epoch: 1/5/2019
Index Date Time (GOES-16) GOES-16 Lat,Lon TERRA Lat,Lon Distance(km) Time Diff (sec)
1 01/05/2019 03:23:49 -0.01, -75.19 0.42, -73.06 241.75 80
2 01/05/2019 15:42:25 0.01, -75.20 0.65, -78.22 343.78 80
3 01/07/2019 15:30:13 0.02, -75.21 0.05, -75.26 6.91 80
4 01/09/2019 15:20:41 0.03, -75.22 -0.56, -72.30 331.23 80
5 01/10/2019 03:39:25 -0.03, -75.21 -0.54, -77.49 259.42 80
6 01/12/2019 03:29:54 -0.03, -75.23 0.14, -74.54 79.27 80
7 01/14/2019 03:17:42 -0.04, -75.26 0.76, -71.58 418.32 80
8 01/14/2019 15:36:17 0.03, -75.27 0.37, -76.73 166.61 80
9 01/16/2019 15:26:46 0.03, -75.30 -0.31, -73.78 172.81 80
10 01/17/2019 03:45:30 -0.03, -75.30 -0.78, -78.97 417.50 80




NCC Satellite Simultaneous Nadir Overpasses (SNOs) Prediction Service
